Showing default

COSMOS 1996, 19787

Orbit data source: Space-Track

COSMOS 1996, 19787 is a payload satellite owned by UNKS (CIS) in LEO that was launched on Fri, 10 Feb 1989 UTC via a TSIKLON-3 launch vehicle from the Plesetsk Missile And Space Complex (PKMTR). Payload-class satellites include a variety of spacecraft equipped with specific instruments for various scientific and technological missions. These include communications satellites like Starlink; space stations such as the ISS; scientific satellites like the Hubble; Earth observation satellites from companies like Planet Labs, Umbra, and HawkEye 360; GPS; miniature CubeSats for education and research; and military/defense satellites.

Loading next visibility...
Identifier
19787, 1989-009C
Orbit
LEO
Country
Flag of CISCIS
Related business
Manufacturer
NPO PM
Mission
Defense Communications
Bus & Motor
STRELA-3, Unknown motor
Mass
225 kg wet, 225 kg dry
Launch date (UTC)
1989-02-10 (37 years ago)
Launch vehicle
TSIKLON-3
Launch site
Plesetsk Missile And Space Complex (PKMTR)
Object type
Payload
Rocket body
Debris
Shape & HBR
Cyl, 0.8 m
Radar Cross Section
1.257 m², Large (>1 m²)

Expand to show TLE details & history
Last TLE update: 1 day ago

TLE from 1 day ago
0 COSMOS 1996
1 19787U 89009C   25306.02317773  .00000047  00000-0  20233-3 0  9998
2 19787  82.6121 150.6433 0005975 199.9907 313.3226 12.62918673692750
Epoch: 2025-11-02T00:33Z
TLE epoch observation values (Epoch: 2025-11-02T00:33:22.555Z)
Latitude
26.53016°
Longitude
-82.93868°
Altitude
1,410.817 km
Speed
7.159 km/s
True Right ascension
21h 47m 48s
True Declination
26° 24' 16"
Sunlit
Object was in daylight at epoch
Visualization orbit readout
Latitude
Unknown
Longitude
Unknown
Altitude
Unknown
Speed
Unknown
Apparent Right ascension
Unknown
Apparent Declination
Unknown
Sunlit
N/A
Visualization observer readout
Local Sidereal Time
06:46:59
Azimuth
Unknown
Elevation
Unknown
Doppler factor
Unknown
Orbital elements
Apogee altitude
1,412.892 km
Perigee altitude
1,403.587 km
Semi-major axis
7,786.376 km
Eccentricity
0.0006
Inclination
82.6121°
RAAN
150.6433°
Arg. of periapsis
199.9907°
True anomaly
313.27276°
Mean anomaly
313.3226°
Eccentric anomaly
313.29768°
Mean motion
3.15893 °/min
Orbital period
113.96 mins
BSTAR
0.00020233
Loading maneuver chart data...
Computing Atmospheric mass density...
Loading historical data...
Loading historical data...
Loading historical data...
Loading historical data...
Loading historical data...
Loading historical data...
Loading historical data...

Documentation

Showing up to 5 results
|